Location: Coll
(42.4728°N, 0.7714°E)
Time: 12:46:35
(UTC+00:00)

FENGYUN 3A - Pass Details

Date: 23 October 2020
Orbit: 824 x 836 km, 98.4° (Epoch: 30 November)

Event Time Altitude Azimuth Distance (km) Brightness Sun altitude
Rises 04:12:33 0° 17° (NNE) 3,393 7.1 -24.1°
Reaches altitude 10° 04:14:58 10° 22° (NNE) 2,456 6.4 -23.6°
Maximum altitude 04:20:19 55° 100° (E) 999 4.3 -22.7°
Drops below altitude 10° 04:25:37 10° 178° (S) 2,439 6.1 -21.7°
Sets 04:28:01 0° 183° (S) 3,368 6.8 -21.2°
